Time,TemperatureF,DewpointF,PressureIn,WindDirection,WindDirectionDegrees,WindSpeedMPH,WindSpeedGustMPH,Humidity,HourlyPrecipIn,Conditions,Clouds,dailyrainin,SoftwareType,DateUTC
2013-09-15 00:02:00,60.4,49.0,17.72,NNE,26,0.0,0.0,66,0.00,,SKC,0.00,VWS V14.00,2013-09-15 04:02:00,
2013-09-15 00:07:00,60.3,48.9,17.72,NNE,26,0.0,0.0,66,0.00,,SKC,0.00,VWS V14.00,2013-09-15 04:07:00,
2013-09-15 00:10:00,60.1,48.7,17.72,NNE,26,0.0,0.0,66,0.00,,SKC,0.00,VWS V14.00,2013-09-15 04:10:00,
2013-09-15 00:13:00,60.1,48.7,17.72,NNE,26,0.0,0.0,66,0.00,,SKC,0.00,VWS V14.00,2013-09-15 04:13:00,
2013-09-15 00:18:00,60.1,49.1,17.72,NNE,26,0.0,0.0,67,0.00,,SKC,0.00,VWS V14.00,2013-09-15 04:18:00,
2013-09-15 00:20:00,60.1,49.1,17.72,NNE,26,0.0,0.0,67,0.00,,SKC,0.00,VWS V14.00,2013-09-15 04:20:00,
2013-09-15 00:28:00,59.9,48.9,17.72,NNE,26,0.0,0.0,67,0.00,,SKC,0.00,VWS V14.00,2013-09-15 04:28:00,
2013-09-15 00:33:00,59.9,48.9,17.72,NNE,26,0.0,0.0,67,0.00,,SKC,0.00,VWS V14.00,2013-09-15 04:33:00,
2013-09-15 00:38:00,59.7,49.2,17.72,NNE,26,0.0,0.0,68,0.00,,SKC,0.00,VWS V14.00,2013-09-15 04:38:00,
2013-09-15 00:43:00,59.7,49.2,17.72,NNE,26,0.0,0.0,68,0.00,,SKC,0.00,VWS V14.00,2013-09-15 04:43:00,
2013-09-15 00:48:00,59.7,49.2,17.72,NNE,26,0.0,0.0,68,0.00,,SKC,0.00,VWS V14.00,2013-09-15 04:48:00,
2013-09-15 00:53:00,59.5,49.0,17.72,NNE,26,0.0,0.0,68,0.00,,SKC,0.00,VWS V14.00,2013-09-15 04:53:00,
2013-09-15 00:58:00,59.5,49.0,17.72,NNE,26,0.0,0.0,68,0.00,,SKC,0.00,VWS V14.00,2013-09-15 04:58:00,
2013-09-15 01:03:00,59.4,48.8,17.72,NNE,26,0.0,0.0,68,0.00,,SKC,0.00,VWS V14.00,2013-09-15 05:03:00,
2013-09-15 01:08:00,59.4,49.2,17.72,NNE,26,0.0,0.0,69,0.00,,SKC,0.00,VWS V14.00,2013-09-15 05:08:00,
2013-09-15 01:13:00,59.4,48.8,17.72,NNE,26,0.0,0.0,68,0.00,,SKC,0.00,VWS V14.00,2013-09-15 05:13:00,
2013-09-15 01:18:00,59.4,49.2,17.72,NNE,26,0.0,0.0,69,0.00,,SKC,0.00,VWS V14.00,2013-09-15 05:18:00,
2013-09-15 01:23:00,59.5,49.4,17.72,NNE,26,0.0,0.0,69,0.00,,SKC,0.00,VWS V14.00,2013-09-15 05:23:00,
2013-09-15 01:28:00,59.4,49.2,17.72,NNE,26,0.0,0.0,69,0.00,,SKC,0.00,VWS V14.00,2013-09-15 05:28:00,
2013-09-15 01:33:00,59.2,49.0,17.72,NNE,26,0.0,0.0,69,0.00,,SKC,0.00,VWS V14.00,2013-09-15 05:33:00,
2013-09-15 01:38:00,59.0,48.9,17.72,NNE,26,0.0,0.0,69,0.00,,SKC,0.00,VWS V14.00,2013-09-15 05:38:00,
2013-09-15 01:43:00,58.8,49.1,17.72,NNE,26,0.0,0.0,70,0.00,,SKC,0.00,VWS V14.00,2013-09-15 05:43:00,
2013-09-15 01:48:00,58.8,49.1,17.72,NNE,26,0.0,0.0,70,0.00,,SKC,0.00,VWS V14.00,2013-09-15 05:48:00,
2013-09-15 01:53:00,59.0,49.2,17.72,NNE,26,0.0,0.0,70,0.00,,SKC,0.00,VWS V14.00,2013-09-15 05:53:00,
2013-09-15 01:58:00,59.0,49.2,17.72,NNE,26,0.0,0.0,70,0.00,,SKC,0.00,VWS V14.00,2013-09-15 05:58:00,
2013-09-15 02:03:00,58.8,49.1,17.72,NNE,26,0.0,0.0,70,0.00,,SKC,0.00,VWS V14.00,2013-09-15 06:03:00,
2013-09-15 02:08:00,58.8,49.1,17.72,NNE,26,0.0,0.0,70,0.00,,SKC,0.00,VWS V14.00,2013-09-15 06:08:00,
2013-09-15 02:13:00,58.6,48.9,17.72,NNE,26,0.0,0.0,70,0.00,,SKC,0.00,VWS V14.00,2013-09-15 06:13:00,
2013-09-15 02:18:00,58.6,49.3,17.72,NNE,26,0.0,0.0,71,0.00,,SKC,0.00,VWS V14.00,2013-09-15 06:18:00,
2013-09-15 02:23:00,58.5,49.1,17.72,NNE,26,0.0,0.0,71,0.00,,SKC,0.00,VWS V14.00,2013-09-15 06:23:00,
2013-09-15 02:28:00,58.5,49.1,17.72,NNE,26,0.0,0.0,71,0.00,,SKC,0.00,VWS V14.00,2013-09-15 06:28:00,
2013-09-15 02:33:00,58.3,48.9,17.72,NNE,26,0.0,0.0,71,0.00,,SKC,0.00,VWS V14.00,2013-09-15 06:33:00,
2013-09-15 02:38:00,58.3,48.9,17.72,NNE,26,0.0,0.0,71,0.00,,SKC,0.00,VWS V14.00,2013-09-15 06:38:00,
2013-09-15 02:43:00,58.1,48.8,17.72,NNE,26,0.0,0.0,71,0.00,,SKC,0.00,VWS V14.00,2013-09-15 06:43:00,
2013-09-15 02:48:00,57.9,48.6,17.72,NNE,26,0.0,0.0,71,0.00,,SKC,0.00,VWS V14.00,2013-09-15 06:48:00,
2013-09-15 02:53:00,57.9,49.0,17.72,NNE,26,0.0,0.0,72,0.00,,SKC,0.00,VWS V14.00,2013-09-15 06:53:00,
2013-09-15 02:58:00,57.7,48.8,17.72,NNE,26,0.0,0.0,72,0.00,,SKC,0.00,VWS V14.00,2013-09-15 06:58:00,
2013-09-15 03:03:00,57.7,48.8,17.72,NNE,26,0.0,0.0,72,0.00,,SKC,0.00,VWS V14.00,2013-09-15 07:03:00,
2013-09-15 03:08:00,57.6,48.6,17.72,NNE,26,0.0,0.0,72,0.00,,SKC,0.00,VWS V14.00,2013-09-15 07:08:00,
2013-09-15 03:13:00,57.7,48.8,17.72,NNE,26,0.0,0.0,72,0.00,,SKC,0.00,VWS V14.00,2013-09-15 07:13:00,
2013-09-15 03:18:00,57.6,48.6,17.72,NNE,26,0.0,0.0,72,0.00,,SKC,0.00,VWS V14.00,2013-09-15 07:18:00,
2013-09-15 03:23:00,57.4,48.4,17.72,NNE,26,0.0,0.0,72,0.00,,SKC,0.00,VWS V14.00,2013-09-15 07:23:00,
2013-09-15 03:28:00,57.2,48.3,17.72,NNE,26,0.0,0.0,72,0.00,,SKC,0.00,VWS V14.00,2013-09-15 07:28:00,
2013-09-15 03:33:00,57.2,48.6,17.72,NNE,26,0.0,0.0,73,0.00,,SKC,0.00,VWS V14.00,2013-09-15 07:33:00,
2013-09-15 03:38:00,57.4,48.4,17.72,NNE,26,0.0,0.0,72,0.00,,SKC,0.00,VWS V14.00,2013-09-15 07:38:00,
2013-09-15 03:43:00,57.2,48.6,17.72,NNE,26,0.0,0.0,73,0.00,,SKC,0.00,VWS V14.00,2013-09-15 07:43:00,
2013-09-15 03:48:00,57.2,48.6,17.72,NNE,26,0.0,0.0,73,0.00,,SKC,0.00,VWS V14.00,2013-09-15 07:48:00,
2013-09-15 03:53:00,57.2,48.6,17.72,NNE,26,0.0,0.0,73,0.00,,SKC,0.00,VWS V14.00,2013-09-15 07:53:00,
2013-09-15 03:58:00,57.2,48.6,17.72,NNE,26,0.0,0.0,73,0.00,,SKC,0.00,VWS V14.00,2013-09-15 07:58:00,
2013-09-15 04:03:00,57.0,48.5,17.72,NNE,26,0.0,0.0,73,0.00,,SKC,0.00,VWS V14.00,2013-09-15 08:03:00,
2013-09-15 04:08:00,56.8,48.3,17.72,NNE,26,0.0,0.0,73,0.00,,SKC,0.00,VWS V14.00,2013-09-15 08:08:00,
2013-09-15 04:13:00,56.8,48.7,17.72,NNE,26,0.0,0.0,74,0.00,,SKC,0.00,VWS V14.00,2013-09-15 08:13:00,
2013-09-15 04:18:00,56.8,48.7,17.72,NNE,26,0.0,0.0,74,0.00,,SKC,0.00,VWS V14.00,2013-09-15 08:18:00,
2013-09-15 04:23:00,56.8,48.7,17.72,NNE,26,0.0,0.0,74,0.00,,SKC,0.00,VWS V14.00,2013-09-15 08:23:00,
2013-09-15 04:28:00,56.8,48.7,17.72,NNE,26,0.0,0.0,74,0.00,,SKC,0.00,VWS V14.00,2013-09-15 08:28:00,
2013-09-15 04:33:00,56.7,48.5,17.72,NNE,26,0.0,0.0,74,0.00,,SKC,0.00,VWS V14.00,2013-09-15 08:33:00,
2013-09-15 04:38:00,56.8,48.7,17.72,NNE,26,0.0,0.0,74,0.00,,SKC,0.00,VWS V14.00,2013-09-15 08:38:00,
2013-09-15 04:43:00,56.7,48.5,17.72,NNE,26,0.0,0.0,74,0.00,,SKC,0.00,VWS V14.00,2013-09-15 08:43:00,
2013-09-15 04:48:00,56.7,48.5,17.72,NNE,26,0.0,0.0,74,0.00,,SKC,0.00,VWS V14.00,2013-09-15 08:48:00,
2013-09-15 04:53:00,56.7,48.5,17.72,NNE,26,0.0,0.0,74,0.00,,SKC,0.00,VWS V14.00,2013-09-15 08:53:00,
2013-09-15 04:58:00,56.7,48.5,17.72,NNE,26,0.0,0.0,74,0.00,,SKC,0.00,VWS V14.00,2013-09-15 08:58:00,
2013-09-15 05:03:00,56.7,48.5,17.72,NNE,26,0.0,0.0,74,0.00,,SKC,0.00,VWS V14.00,2013-09-15 09:03:00,
2013-09-15 05:08:00,56.5,48.3,17.72,NNE,26,0.0,0.0,74,0.00,,SKC,0.00,VWS V14.00,2013-09-15 09:08:00,
2013-09-15 05:13:00,56.5,48.3,17.72,NNE,26,0.0,0.0,74,0.00,,SKC,0.00,VWS V14.00,2013-09-15 09:13:00,
2013-09-15 05:18:00,56.5,48.3,17.72,NNE,26,0.0,0.0,74,0.00,,SKC,0.00,VWS V14.00,2013-09-15 09:18:00,
2013-09-15 05:23:00,56.5,48.3,17.72,NNE,26,0.0,0.0,74,0.00,,SKC,0.00,VWS V14.00,2013-09-15 09:23:00,
2013-09-15 05:28:00,56.3,48.1,17.72,NNE,26,0.0,0.0,74,0.00,,SKC,0.00,VWS V14.00,2013-09-15 09:28:00,
2013-09-15 05:33:00,56.5,48.3,17.72,NNE,26,0.0,0.0,74,0.00,,SKC,0.00,VWS V14.00,2013-09-15 09:33:00,
2013-09-15 05:38:00,56.5,48.3,17.72,NNE,26,0.0,0.0,74,0.00,,SKC,0.00,VWS V14.00,2013-09-15 09:38:00,
2013-09-15 05:43:00,56.3,48.1,17.72,NNE,26,0.0,0.0,74,0.00,,SKC,0.00,VWS V14.00,2013-09-15 09:43:00,
2013-09-15 05:48:00,56.1,48.0,17.72,NNE,26,0.0,0.0,74,0.00,,SKC,0.00,VWS V14.00,2013-09-15 09:48:00,
2013-09-15 05:53:00,56.1,48.0,17.72,NNE,26,0.0,0.0,74,0.00,,SKC,0.00,VWS V14.00,2013-09-15 09:53:00,
2013-09-15 05:58:00,55.9,47.8,17.72,NNE,26,0.0,0.0,74,0.00,,SKC,0.00,VWS V14.00,2013-09-15 09:58:00,
2013-09-15 06:03:00,55.9,47.8,17.72,NNE,26,0.0,0.0,74,0.00,,SKC,0.00,VWS V14.00,2013-09-15 10:03:00,
2013-09-15 06:08:00,55.8,48.0,17.72,NNE,26,0.0,0.0,75,0.00,,SKC,0.00,VWS V14.00,2013-09-15 10:08:00,
2013-09-15 06:13:00,55.8,48.0,17.72,NNE,26,0.0,0.0,75,0.00,,SKC,0.00,VWS V14.00,2013-09-15 10:13:00,
2013-09-15 06:18:00,55.8,48.0,17.72,NNE,26,0.0,0.0,75,0.00,,SKC,0.00,VWS V14.00,2013-09-15 10:18:00,
2013-09-15 06:24:00,55.8,48.0,17.72,NNE,26,0.0,0.0,75,0.00,,SKC,0.00,VWS V14.00,2013-09-15 10:24:00,
2013-09-15 06:29:00,55.8,48.0,17.72,NNE,26,0.0,0.0,75,0.00,,SKC,0.00,VWS V14.00,2013-09-15 10:29:00,
2013-09-15 06:34:00,55.8,48.0,17.72,NNE,26,0.0,0.0,75,0.00,,SKC,0.00,VWS V14.00,2013-09-15 10:34:00,
2013-09-15 06:39:00,55.6,47.8,17.72,NNE,26,0.0,0.0,75,0.00,,SKC,0.00,VWS V14.00,2013-09-15 10:39:00,
2013-09-15 06:44:00,55.6,47.8,17.72,NNE,26,0.0,0.0,75,0.00,,SKC,0.00,VWS V14.00,2013-09-15 10:44:00,
2013-09-15 06:49:00,55.6,47.8,17.72,NNE,26,0.0,0.0,75,0.00,,SKC,0.00,VWS V14.00,2013-09-15 10:49:00,
2013-09-15 06:54:00,55.6,47.8,17.72,NNE,26,0.0,0.0,75,0.00,,SKC,0.00,VWS V14.00,2013-09-15 10:54:00,
2013-09-15 06:59:00,55.6,47.8,17.72,NNE,26,0.0,0.0,75,0.00,,SKC,0.00,VWS V14.00,2013-09-15 10:59:00,
2013-09-15 07:04:00,55.6,47.8,17.72,NNE,26,0.0,0.0,75,0.00,,SKC,0.00,VWS V14.00,2013-09-15 11:04:00,
2013-09-15 07:09:00,55.6,47.8,17.72,NNE,26,0.0,0.0,75,0.00,,SKC,0.00,VWS V14.00,2013-09-15 11:09:00,
2013-09-15 07:14:00,55.6,47.8,17.72,NNE,26,0.0,0.0,75,0.00,,SKC,0.00,VWS V14.00,2013-09-15 11:14:00,
2013-09-15 07:19:00,55.4,47.6,17.72,NNE,26,0.0,0.0,75,0.00,,SKC,0.00,VWS V14.00,2013-09-15 11:19:00,
2013-09-15 07:24:00,55.4,47.6,17.72,NNE,26,0.0,0.0,75,0.00,,SKC,0.00,VWS V14.00,2013-09-15 11:24:00,
2013-09-15 07:29:00,55.4,47.6,17.72,NNE,26,0.0,0.0,75,0.00,,SKC,0.00,VWS V14.00,2013-09-15 11:29:00,
2013-09-15 07:34:00,55.2,47.8,17.72,NNE,26,0.0,0.0,76,0.00,,SKC,0.00,VWS V14.00,2013-09-15 11:34:00,
2013-09-15 07:39:00,55.4,48.0,17.72,NNE,26,0.0,0.0,76,0.00,,SKC,0.00,VWS V14.00,2013-09-15 11:39:00,
2013-09-15 07:44:00,55.4,48.0,17.72,NNE,26,0.0,0.0,76,0.00,,SKC,0.00,VWS V14.00,2013-09-15 11:44:00,
2013-09-15 07:49:00,55.4,48.0,17.72,NNE,26,0.0,0.0,76,0.00,,SKC,0.00,VWS V14.00,2013-09-15 11:49:00,
2013-09-15 07:54:00,55.6,48.2,17.72,NNE,26,0.0,0.0,76,0.00,,SKC,0.00,VWS V14.00,2013-09-15 11:54:00,
2013-09-15 07:59:00,55.8,48.3,17.72,NNE,26,0.0,0.0,76,0.00,,SKC,0.00,VWS V14.00,2013-09-15 11:59:00,
2013-09-15 08:04:00,55.8,48.7,17.72,NNE,26,0.0,0.0,77,0.00,,SKC,0.00,VWS V14.00,2013-09-15 12:04:00,
2013-09-15 08:09:00,55.9,48.8,17.72,NNE,26,0.0,0.0,77,0.00,,SKC,0.00,VWS V14.00,2013-09-15 12:09:00,
2013-09-15 08:14:00,56.3,49.2,17.72,NNE,26,0.0,0.0,77,0.00,,SKC,0.00,VWS V14.00,2013-09-15 12:14:00,
2013-09-15 08:19:00,56.5,49.4,17.72,NNE,26,0.0,0.0,77,0.00,,SKC,0.00,VWS V14.00,2013-09-15 12:19:00,
2013-09-15 08:24:00,56.7,49.9,17.72,NNE,26,0.0,0.0,78,0.00,,SKC,0.00,VWS V14.00,2013-09-15 12:24:00,
2013-09-15 08:29:00,57.0,50.2,17.72,NNE,26,0.0,0.0,78,0.00,,SKC,0.00,VWS V14.00,2013-09-15 12:29:00,
2013-09-15 08:34:00,57.2,50.4,17.72,NNE,26,0.0,0.0,78,0.00,,SKC,0.00,VWS V14.00,2013-09-15 12:34:00,
2013-09-15 08:39:00,57.6,50.8,17.72,NNE,26,0.0,0.0,78,0.00,,SKC,0.00,VWS V14.00,2013-09-15 12:39:00,
2013-09-15 08:44:00,57.9,51.5,17.72,NNE,26,0.0,0.0,79,0.00,,SKC,0.00,VWS V14.00,2013-09-15 12:44:00,
2013-09-15 08:49:00,58.3,51.8,17.72,NNE,26,0.0,0.0,79,0.00,,SKC,0.00,VWS V14.00,2013-09-15 12:49:00,
2013-09-15 08:54:00,58.5,52.0,17.72,NNE,26,0.0,0.0,79,0.00,,SKC,0.00,VWS V14.00,2013-09-15 12:54:00,
2013-09-15 08:59:00,58.8,52.3,17.72,NNE,26,0.0,0.0,79,0.00,,SKC,0.00,VWS V14.00,2013-09-15 12:59:00,
2013-09-15 09:04:00,59.0,52.5,17.72,NNE,26,0.0,0.0,79,0.00,,SKC,0.00,VWS V14.00,2013-09-15 13:04:00,
2013-09-15 09:09:00,59.4,52.9,17.72,NNE,26,0.0,0.0,79,0.00,,SKC,0.00,VWS V14.00,2013-09-15 13:09:00,
2013-09-15 09:14:00,59.7,53.2,17.72,NNE,26,0.0,0.0,79,0.00,,SKC,0.00,VWS V14.00,2013-09-15 13:14:00,
2013-09-15 09:19:00,60.3,53.7,17.72,NNE,26,0.0,0.0,79,0.00,,SKC,0.00,VWS V14.00,2013-09-15 13:19:00,
2013-09-15 09:24:00,60.6,54.1,17.72,North,5,0.0,3.6,79,0.00,,SKC,0.00,VWS V14.00,2013-09-15 13:24:00,
2013-09-15 09:29:00,61.0,54.4,17.72,North,5,0.0,3.6,79,0.00,,SKC,0.00,VWS V14.00,2013-09-15 13:29:00,
2013-09-15 09:34:00,61.2,54.6,17.72,NNE,29,0.0,0.0,79,0.00,,SKC,0.00,VWS V14.00,2013-09-15 13:34:00,
2013-09-15 09:39:00,61.5,55.0,17.72,NE,38,0.0,0.0,79,0.00,,SKC,0.00,VWS V14.00,2013-09-15 13:39:00,
2013-09-15 09:44:00,61.9,55.3,17.72,NE,35,0.0,0.0,79,0.00,,SKC,0.00,VWS V14.00,2013-09-15 13:44:00,
2013-09-15 09:49:00,62.2,55.7,17.72,SW,217,0.0,0.0,79,0.00,,SKC,0.00,VWS V14.00,2013-09-15 13:49:00,
2013-09-15 09:54:00,62.8,55.8,17.72,NNE,23,3.2,3.2,78,0.00,,SKC,0.00,VWS V14.00,2013-09-15 13:54:00,
2013-09-15 09:59:00,63.1,56.2,17.72,NNE,28,0.0,4.9,78,0.00,,SKC,0.00,VWS V14.00,2013-09-15 13:59:00,
2013-09-15 10:04:00,63.5,56.5,17.72,North,6,0.0,0.0,78,0.00,,SKC,0.00,VWS V14.00,2013-09-15 14:04:00,
2013-09-15 10:09:00,63.9,56.5,17.72,NE,45,0.0,4.0,77,0.00,,SKC,0.00,VWS V14.00,2013-09-15 14:09:00,
2013-09-15 10:14:00,64.2,56.9,17.72,NNE,25,0.0,3.1,77,0.00,,SKC,0.00,VWS V14.00,2013-09-15 14:14:00,
2013-09-15 10:19:00,64.4,57.0,17.72,NNE,25,0.0,3.1,77,0.00,,SKC,0.00,VWS V14.00,2013-09-15 14:19:00,
2013-09-15 10:24:00,64.9,57.6,17.72,NNE,25,0.0,0.0,77,0.00,,SKC,0.00,VWS V14.00,2013-09-15 14:24:00,
2013-09-15 10:29:00,65.3,57.5,17.72,NNE,25,0.0,0.0,76,0.00,,SKC,0.00,VWS V14.00,2013-09-15 14:29:00,
2013-09-15 10:34:00,65.5,57.7,17.72,South,191,0.0,0.0,76,0.00,,SKC,0.00,VWS V14.00,2013-09-15 14:34:00,
2013-09-15 10:40:00,65.8,58.4,17.72,South,191,0.0,0.0,77,0.00,,SKC,0.00,VWS V14.00,2013-09-15 14:40:00,
2013-09-15 10:49:00,66.6,58.8,17.72,SE,133,0.0,0.0,76,0.00,,SKC,0.00,VWS V14.00,2013-09-15 14:49:00,
2013-09-15 10:54:00,66.9,59.1,17.72,West,261,0.0,0.0,76,0.00,,SKC,0.00,VWS V14.00,2013-09-15 14:54:00,
2013-09-15 10:59:00,67.1,59.3,17.72,West,261,0.0,0.0,76,0.00,,SKC,0.00,VWS V14.00,2013-09-15 14:59:00,
2013-09-15 11:04:00,67.6,59.8,17.72,NNE,19,0.0,0.0,76,0.00,,SKC,0.00,VWS V14.00,2013-09-15 15:04:00,
2013-09-15 11:09:00,68.2,60.0,17.72,North,1,0.0,0.0,75,0.00,,SKC,0.00,VWS V14.00,2013-09-15 15:09:00,
2013-09-15 11:14:00,68.7,60.1,17.72,SSW,208,0.0,0.0,74,0.00,,SKC,0.00,VWS V14.00,2013-09-15 15:14:00,
2013-09-15 11:19:00,68.9,60.3,17.72,SSW,209,0.0,0.0,74,0.00,,SKC,0.00,VWS V14.00,2013-09-15 15:19:00,
2013-09-15 11:24:00,69.3,60.2,17.72,East,98,0.0,0.0,73,0.00,,SKC,0.00,VWS V14.00,2013-09-15 15:24:00,
2013-09-15 11:29:00,69.6,60.2,17.72,East,98,0.0,0.0,72,0.00,,SKC,0.00,VWS V14.00,2013-09-15 15:29:00,
2013-09-15 11:39:00,70.3,60.9,17.72,East,98,0.0,0.0,72,0.00,,SKC,0.00,VWS V14.00,2013-09-15 15:39:00,
2013-09-15 11:44:00,70.9,61.4,17.72,East,98,0.0,0.0,72,0.00,,SKC,0.00,VWS V14.00,2013-09-15 15:44:00,
2013-09-15 11:49:00,71.2,61.4,17.72,East,98,0.0,0.0,71,0.00,,SKC,0.00,VWS V14.00,2013-09-15 15:49:00,
2013-09-15 11:54:00,71.8,61.9,17.72,East,98,0.0,0.0,71,0.00,,SKC,0.00,VWS V14.00,2013-09-15 15:54:00,
2013-09-15 11:59:00,72.1,61.8,17.72,East,98,0.0,0.0,70,0.00,,SKC,0.00,VWS V14.00,2013-09-15 15:59:00,
2013-09-15 12:04:00,72.7,62.3,17.72,East,98,0.0,0.0,70,0.00,,SKC,0.00,VWS V14.00,2013-09-15 16:04:00,
2013-09-15 12:09:00,73.0,62.3,17.72,ESE,102,0.0,0.0,69,0.00,,SKC,0.00,VWS V14.00,2013-09-15 16:09:00,
2013-09-15 12:14:00,73.6,62.4,17.72,NE,38,0.0,0.0,68,0.00,,SKC,0.00,VWS V14.00,2013-09-15 16:14:00,
2013-09-15 12:19:00,74.1,62.9,17.72,ESE,106,0.0,0.0,68,0.00,,SKC,0.00,VWS V14.00,2013-09-15 16:19:00,
2013-09-15 12:24:00,74.5,62.8,17.72,SE,136,0.0,2.7,67,0.00,,SKC,0.00,VWS V14.00,2013-09-15 16:24:00,
2013-09-15 12:29:00,74.8,62.7,17.72,SE,143,0.0,2.7,66,0.00,,SKC,0.00,VWS V14.00,2013-09-15 16:29:00,
2013-09-15 12:35:00,75.2,63.1,17.72,East,84,0.0,2.7,66,0.00,,SKC,0.00,VWS V14.00,2013-09-15 16:35:00,
2013-09-15 12:40:00,75.6,62.5,17.72,NE,53,0.0,2.7,64,0.00,,SKC,0.00,VWS V14.00,2013-09-15 16:40:00,
2013-09-15 12:45:00,75.9,62.4,17.72,ENE,61,0.0,3.1,63,0.00,,SKC,0.00,VWS V14.00,2013-09-15 16:45:00,
2013-09-15 12:50:00,76.3,62.3,17.72,SW,223,0.0,3.1,62,0.00,,SKC,0.00,VWS V14.00,2013-09-15 16:50:00,
2013-09-15 12:55:00,76.8,62.4,17.72,NE,56,0.0,0.0,61,0.00,,SKC,0.00,VWS V14.00,2013-09-15 16:55:00,
2013-09-15 13:00:00,77.0,60.1,17.72,SW,236,2.7,3.1,56,0.00,,SKC,0.00,VWS V14.00,2013-09-15 17:00:00,
2013-09-15 13:05:00,77.5,62.1,17.72,SSE,161,0.0,4.5,59,0.00,,SKC,0.00,VWS V14.00,2013-09-15 17:05:00,
2013-09-15 13:10:00,78.1,62.6,17.72,SSE,152,0.0,4.5,59,0.00,,SKC,0.00,VWS V14.00,2013-09-15 17:10:00,
2013-09-15 13:15:00,78.4,62.5,17.72,SE,145,0.0,0.0,58,0.00,,SKC,0.00,VWS V14.00,2013-09-15 17:15:00,
2013-09-15 13:20:00,78.8,62.8,17.72,SSE,161,0.0,0.0,58,0.00,,SKC,0.00,VWS V14.00,2013-09-15 17:20:00,
2013-09-15 13:25:00,79.3,62.8,17.72,WSW,248,0.0,0.0,57,0.00,,SKC,0.00,VWS V14.00,2013-09-15 17:25:00,
2013-09-15 13:30:00,79.9,63.3,17.72,SSW,196,0.0,0.0,57,0.00,,SKC,0.00,VWS V14.00,2013-09-15 17:30:00,
2013-09-15 13:35:00,80.1,62.5,17.72,South,177,3.8,4.9,55,0.00,,SKC,0.00,VWS V14.00,2013-09-15 17:35:00,
2013-09-15 13:40:00,79.5,61.4,17.72,SSW,199,0.0,4.9,54,0.00,,SKC,0.00,VWS V14.00,2013-09-15 17:40:00,
2013-09-15 13:45:00,79.3,61.3,17.72,South,184,0.0,0.0,54,0.00,,SKC,0.00,VWS V14.00,2013-09-15 17:45:00,
2013-09-15 13:50:00,79.2,61.1,17.72,South,178,0.0,3.1,54,0.00,,SKC,0.00,VWS V14.00,2013-09-15 17:50:00,
2013-09-15 13:55:00,79.0,60.4,17.72,West,261,0.0,0.0,53,0.00,,SKC,0.00,VWS V14.00,2013-09-15 17:55:00,
2013-09-15 14:00:00,79.3,61.3,17.72,West,261,0.0,0.0,54,0.00,,SKC,0.00,VWS V14.00,2013-09-15 18:00:00,
2013-09-15 14:05:00,80.2,62.1,17.72,SW,224,0.0,0.0,54,0.00,,SKC,0.00,VWS V14.00,2013-09-15 18:05:00,
2013-09-15 14:10:00,81.1,61.3,17.72,West,270,0.0,3.6,51,0.00,,SKC,0.00,VWS V14.00,2013-09-15 18:10:00,
2013-09-15 14:15:00,81.9,61.4,17.72,NNE,27,0.0,0.0,50,0.00,,SKC,0.00,VWS V14.00,2013-09-15 18:15:00,
2013-09-15 14:20:00,81.7,61.2,17.72,SW,225,0.0,0.0,50,0.00,,SKC,0.00,VWS V14.00,2013-09-15 18:20:00,
2013-09-15 14:25:00,81.9,59.7,17.72,NNE,24,3.8,4.9,47,0.00,,SKC,0.00,VWS V14.00,2013-09-15 18:25:00,
2013-09-15 14:30:00,81.9,59.7,17.72,SW,217,0.0,0.0,47,0.00,,SKC,0.00,VWS V14.00,2013-09-15 18:30:00,
2013-09-15 14:35:00,82.2,60.0,17.72,NNE,27,0.0,0.0,47,0.00,,SKC,0.00,VWS V14.00,2013-09-15 18:35:00,
2013-09-15 14:40:00,82.2,60.0,17.72,WSW,238,0.0,0.0,47,0.00,,SKC,0.00,VWS V14.00,2013-09-15 18:40:00,
2013-09-15 14:45:00,82.6,58.5,17.72,WSW,254,6.4,6.4,44,0.00,,SKC,0.00,VWS V14.00,2013-09-15 18:45:00,
2013-09-15 14:50:00,83.3,59.1,17.72,SSE,159,0.0,6.3,44,0.00,,SKC,0.00,VWS V14.00,2013-09-15 18:50:00,
2013-09-15 14:55:00,83.5,59.3,17.72,SSW,213,2.7,4.9,44,0.00,,SKC,0.00,VWS V14.00,2013-09-15 18:55:00,
2013-09-15 15:00:00,83.8,59.6,17.72,WSW,241,0.0,0.0,44,0.00,,SKC,0.00,VWS V14.00,2013-09-15 19:00:00,
2013-09-15 15:05:00,83.5,58.7,17.72,North,357,0.0,0.0,43,0.00,,SKC,0.00,VWS V14.00,2013-09-15 19:05:00,
2013-09-15 15:10:00,83.5,58.0,17.72,NNW,345,0.0,4.0,42,0.00,,SKC,0.00,VWS V14.00,2013-09-15 19:10:00,
2013-09-15 15:15:00,83.7,58.2,17.72,ENE,67,0.0,3.6,42,0.00,,SKC,0.00,VWS V14.00,2013-09-15 19:15:00,
2013-09-15 15:20:00,83.1,57.0,17.72,WSW,246,0.0,0.0,41,0.00,,SKC,0.00,VWS V14.00,2013-09-15 19:20:00,
2013-09-15 15:25:00,82.6,57.2,17.72,SE,145,0.0,0.0,42,0.00,,SKC,0.00,VWS V14.00,2013-09-15 19:25:00,
2013-09-15 15:30:00,82.6,57.2,17.72,ENE,61,0.0,2.2,42,0.00,,SKC,0.00,VWS V14.00,2013-09-15 19:30:00,
2013-09-15 15:35:00,83.3,57.8,17.72,SW,214,4.3,4.3,42,0.00,,SKC,0.00,VWS V14.00,2013-09-15 19:35:00,
2013-09-15 15:40:00,84.0,58.5,17.72,SSE,155,0.0,0.0,42,0.00,,SKC,0.00,VWS V14.00,2013-09-15 19:40:00,
2013-09-15 15:45:00,84.6,58.3,17.72,South,188,0.0,3.6,41,0.00,,SKC,0.00,VWS V14.00,2013-09-15 19:45:00,
2013-09-15 15:50:00,84.9,57.9,17.72,North,357,0.0,0.0,40,0.00,,SKC,0.00,VWS V14.00,2013-09-15 19:50:00,
2013-09-15 15:55:00,84.9,58.6,17.72,SE,127,0.0,0.0,41,0.00,,SKC,0.00,VWS V14.00,2013-09-15 19:55:00,
2013-09-15 16:00:00,85.1,58.1,17.72,South,173,0.0,0.0,40,0.00,,SKC,0.00,VWS V14.00,2013-09-15 20:00:00,
2013-09-15 16:05:00,84.7,57.8,17.72,SW,236,0.0,5.8,40,0.00,,SKC,0.00,VWS V14.00,2013-09-15 20:05:00,
2013-09-15 16:10:00,83.8,57.7,17.72,ESE,113,6.4,6.4,41,0.00,,SKC,0.00,VWS V14.00,2013-09-15 20:10:00,
2013-09-15 16:15:00,83.1,56.3,17.72,SSE,156,4.3,5.4,40,0.00,,SKC,0.00,VWS V14.00,2013-09-15 20:15:00,
2013-09-15 16:20:00,82.6,55.8,17.72,SSW,197,0.0,0.0,40,0.00,,SKC,0.00,VWS V14.00,2013-09-15 20:20:00,
2013-09-15 16:25:00,82.0,56.0,17.72,East,81,0.0,3.1,41,0.00,,SKC,0.00,VWS V14.00,2013-09-15 20:25:00,
2013-09-15 16:30:00,81.5,55.5,17.72,East,81,0.0,0.0,41,0.00,,SKC,0.00,VWS V14.00,2013-09-15 20:30:00,
2013-09-15 16:35:00,81.5,56.2,17.72,SE,145,0.0,0.0,42,0.00,,SKC,0.00,VWS V14.00,2013-09-15 20:35:00,
2013-09-15 16:40:00,81.7,56.4,17.72,SE,140,0.0,0.0,42,0.00,,SKC,0.00,VWS V14.00,2013-09-15 20:40:00,
2013-09-15 16:45:00,81.7,56.4,17.72,South,184,4.8,4.8,42,0.00,,SKC,0.00,VWS V14.00,2013-09-15 20:45:00,
2013-09-15 16:50:00,81.7,56.4,17.72,SW,225,0.0,0.0,42,0.00,,SKC,0.00,VWS V14.00,2013-09-15 20:50:00,
2013-09-15 16:55:00,81.7,56.4,17.72,SSE,168,3.8,4.0,42,0.00,,SKC,0.00,VWS V14.00,2013-09-15 20:55:00,
2013-09-15 17:00:00,81.5,55.5,17.72,South,176,3.2,5.4,41,0.00,,SKC,0.00,VWS V14.00,2013-09-15 21:00:00,
2013-09-15 17:05:00,81.3,55.4,17.72,WSW,238,0.0,5.4,41,0.00,,SKC,0.00,VWS V14.00,2013-09-15 21:05:00,
2013-09-15 17:10:00,81.1,55.9,17.72,WSW,248,0.0,5.4,42,0.00,,SKC,0.00,VWS V14.00,2013-09-15 21:10:00,
2013-09-15 17:15:00,80.8,54.9,17.72,SE,135,0.0,5.4,41,0.00,,SKC,0.00,VWS V14.00,2013-09-15 21:15:00,
2013-09-15 17:20:00,80.4,55.2,17.72,SE,135,0.0,5.4,42,0.00,,SKC,0.00,VWS V14.00,2013-09-15 21:20:00,
2013-09-15 17:25:00,80.1,55.6,17.72,SE,135,0.0,5.4,43,0.00,,SKC,0.00,VWS V14.00,2013-09-15 21:25:00,
2013-09-15 17:30:00,79.7,55.2,17.72,SE,135,0.0,0.0,43,0.00,,SKC,0.00,VWS V14.00,2013-09-15 21:30:00,
2013-09-15 17:35:00,79.3,54.9,17.72,SE,135,0.0,0.0,43,0.00,,SKC,0.00,VWS V14.00,2013-09-15 21:35:00,
2013-09-15 17:40:00,79.2,54.8,17.72,SE,135,0.0,0.0,43,0.00,,SKC,0.00,VWS V14.00,2013-09-15 21:40:00,
2013-09-15 17:45:00,79.2,55.4,17.72,SE,135,0.0,0.0,44,0.00,,SKC,0.00,VWS V14.00,2013-09-15 21:45:00,
2013-09-15 17:50:00,79.2,55.4,17.72,SE,135,0.0,0.0,44,0.00,,SKC,0.00,VWS V14.00,2013-09-15 21:50:00,
2013-09-15 17:55:00,79.2,56.0,17.72,SE,135,0.0,0.0,45,0.00,,SKC,0.00,VWS V14.00,2013-09-15 21:55:00,
2013-09-15 18:01:00,79.2,56.0,17.72,SE,135,0.0,0.0,45,0.00,,SKC,0.00,VWS V14.00,2013-09-15 22:01:00,
2013-09-15 18:06:00,79.2,56.0,17.72,South,183,0.0,0.0,45,0.00,,SKC,0.00,VWS V14.00,2013-09-15 22:06:00,
2013-09-15 18:11:00,79.0,55.8,17.72,WNW,290,0.0,0.0,45,0.00,,SKC,0.00,VWS V14.00,2013-09-15 22:11:00,
2013-09-15 18:16:00,78.8,55.7,17.72,SSW,195,0.0,0.0,45,0.00,,SKC,0.00,VWS V14.00,2013-09-15 22:16:00,
2013-09-15 18:21:00,78.4,55.4,17.72,SSW,195,0.0,0.0,45,0.00,,SKC,0.00,VWS V14.00,2013-09-15 22:21:00,
2013-09-15 18:26:00,78.1,55.0,17.72,SSW,195,0.0,0.0,45,0.00,,SKC,0.00,VWS V14.00,2013-09-15 22:26:00,
2013-09-15 18:31:00,77.7,54.7,17.72,SSW,211,0.0,0.0,45,0.00,,SKC,0.00,VWS V14.00,2013-09-15 22:31:00,
2013-09-15 18:36:00,77.4,55.0,17.72,SSE,160,0.0,0.0,46,0.00,,SKC,0.00,VWS V14.00,2013-09-15 22:36:00,
2013-09-15 18:41:00,76.8,55.1,17.72,SSE,160,0.0,0.0,47,0.00,,SKC,0.00,VWS V14.00,2013-09-15 22:41:00,
2013-09-15 18:46:00,76.6,54.9,17.72,SSE,160,0.0,0.0,47,0.00,,SKC,0.00,VWS V14.00,2013-09-15 22:46:00,
2013-09-15 18:51:00,76.3,55.2,17.72,SSE,160,0.0,0.0,48,0.00,,SKC,0.00,VWS V14.00,2013-09-15 22:51:00,
2013-09-15 18:56:00,75.9,54.8,17.72,SSE,160,0.0,0.0,48,0.00,,SKC,0.00,VWS V14.00,2013-09-15 22:56:00,
2013-09-15 19:01:00,75.7,55.2,17.72,SSE,160,0.0,0.0,49,0.00,,SKC,0.00,VWS V14.00,2013-09-15 23:01:00,
2013-09-15 19:06:00,75.4,54.9,17.72,SSE,160,0.0,0.0,49,0.00,,SKC,0.00,VWS V14.00,2013-09-15 23:06:00,
2013-09-15 19:11:00,75.2,55.3,17.72,SSE,160,0.0,0.0,50,0.00,,SKC,0.00,VWS V14.00,2013-09-15 23:11:00,
2013-09-15 19:16:00,74.8,55.5,17.72,SSE,160,0.0,0.0,51,0.00,,SKC,0.00,VWS V14.00,2013-09-15 23:16:00,
2013-09-15 19:21:00,74.5,55.2,17.72,SSE,160,0.0,0.0,51,0.00,,SKC,0.00,VWS V14.00,2013-09-15 23:21:00,
2013-09-15 19:26:00,74.3,55.0,17.72,SSE,160,0.0,0.0,51,0.00,,SKC,0.00,VWS V14.00,2013-09-15 23:26:00,
2013-09-15 19:31:00,74.1,55.4,17.72,SSE,160,0.0,0.0,52,0.00,,SKC,0.00,VWS V14.00,2013-09-15 23:31:00,
2013-09-15 19:36:00,73.9,55.8,17.72,SSE,160,0.0,0.0,53,0.00,,SKC,0.00,VWS V14.00,2013-09-15 23:36:00,
2013-09-15 19:41:00,73.6,55.4,17.72,SSE,160,0.0,0.0,53,0.00,,SKC,0.00,VWS V14.00,2013-09-15 23:41:00,
2013-09-15 19:46:00,73.4,55.8,17.72,SSE,160,0.0,0.0,54,0.00,,SKC,0.00,VWS V14.00,2013-09-15 23:46:00,
2013-09-15 19:51:00,73.0,55.9,17.72,SSE,160,0.0,0.0,55,0.00,,SKC,0.00,VWS V14.00,2013-09-15 23:51:00,
2013-09-15 19:56:00,72.9,55.8,17.72,SSE,160,0.0,0.0,55,0.00,,SKC,0.00,VWS V14.00,2013-09-15 23:56:00,
2013-09-15 20:01:00,72.5,55.9,17.72,SSE,160,0.0,0.0,56,0.00,,SKC,0.00,VWS V14.00,2013-09-16 00:01:00,
2013-09-15 20:06:00,72.3,55.8,17.72,SSE,160,0.0,0.0,56,0.00,,SKC,0.00,VWS V14.00,2013-09-16 00:06:00,
2013-09-15 20:11:00,72.1,55.6,17.72,SSE,160,0.0,0.0,56,0.00,,SKC,0.00,VWS V14.00,2013-09-16 00:11:00,
2013-09-15 20:16:00,72.1,56.1,17.72,SSE,160,0.0,0.0,57,0.00,,SKC,0.00,VWS V14.00,2013-09-16 00:16:00,
2013-09-15 20:21:00,72.0,56.4,17.72,SSE,160,0.0,0.0,58,0.00,,SKC,0.00,VWS V14.00,2013-09-16 00:21:00,
2013-09-15 20:26:00,71.8,56.2,17.72,SSE,160,0.0,0.0,58,0.00,,SKC,0.00,VWS V14.00,2013-09-16 00:26:00,
2013-09-15 20:31:00,71.6,56.1,17.72,SSE,160,0.0,0.0,58,0.00,,SKC,0.00,VWS V14.00,2013-09-16 00:31:00,
2013-09-15 20:36:00,71.2,56.2,17.72,SSE,160,0.0,0.0,59,0.00,,SKC,0.00,VWS V14.00,2013-09-16 00:36:00,
2013-09-15 20:41:00,71.2,56.2,17.72,SSE,160,0.0,0.0,59,0.00,,SKC,0.00,VWS V14.00,2013-09-16 00:41:00,
2013-09-15 20:46:00,71.1,56.0,17.72,SSE,160,0.0,0.0,59,0.00,,SKC,0.00,VWS V14.00,2013-09-16 00:46:00,
2013-09-15 20:51:00,70.9,56.3,17.72,SSE,160,0.0,0.0,60,0.00,,SKC,0.00,VWS V14.00,2013-09-16 00:51:00,
2013-09-15 20:56:00,70.7,56.2,17.72,SSE,160,0.0,0.0,60,0.00,,SKC,0.00,VWS V14.00,2013-09-16 00:56:00,
2013-09-15 21:01:00,70.3,55.8,17.72,SSE,160,0.0,0.0,60,0.00,,SKC,0.00,VWS V14.00,2013-09-16 01:01:00,
2013-09-15 21:06:00,70.2,56.1,17.72,SSE,160,0.0,0.0,61,0.00,,SKC,0.00,VWS V14.00,2013-09-16 01:06:00,
2013-09-15 21:11:00,70.0,55.9,17.72,SSE,160,0.0,0.0,61,0.00,,SKC,0.00,VWS V14.00,2013-09-16 01:11:00,
2013-09-15 21:16:00,70.0,55.9,17.72,SSE,160,0.0,0.0,61,0.00,,SKC,0.00,VWS V14.00,2013-09-16 01:16:00,
2013-09-15 21:21:00,69.8,56.2,17.72,SSE,160,0.0,0.0,62,0.00,,SKC,0.00,VWS V14.00,2013-09-16 01:21:00,
2013-09-15 21:26:00,69.6,56.0,17.72,SSE,160,0.0,0.0,62,0.00,,SKC,0.00,VWS V14.00,2013-09-16 01:26:00,
2013-09-15 21:31:00,69.3,56.1,17.72,SSE,160,0.0,0.0,63,0.00,,SKC,0.00,VWS V14.00,2013-09-16 01:31:00,
2013-09-15 21:36:00,69.3,56.1,17.72,SSE,160,0.0,0.0,63,0.00,,SKC,0.00,VWS V14.00,2013-09-16 01:36:00,
2013-09-15 21:41:00,69.1,56.0,17.72,SSE,160,0.0,0.0,63,0.00,,SKC,0.00,VWS V14.00,2013-09-16 01:41:00,
2013-09-15 21:46:00,69.1,56.0,17.72,SSE,160,0.0,0.0,63,0.00,,SKC,0.00,VWS V14.00,2013-09-16 01:46:00,
2013-09-15 21:51:00,68.7,56.1,17.72,SSE,160,0.0,0.0,64,0.00,,SKC,0.00,VWS V14.00,2013-09-16 01:51:00,
2013-09-15 21:56:00,68.5,55.9,17.72,SSE,160,0.0,0.0,64,0.00,,SKC,0.00,VWS V14.00,2013-09-16 01:56:00,
2013-09-15 22:01:00,68.2,56.0,17.72,SSE,160,0.0,0.0,65,0.00,,SKC,0.00,VWS V14.00,2013-09-16 02:01:00,
2013-09-15 22:06:00,68.2,56.0,17.72,SSE,160,0.0,0.0,65,0.00,,SKC,0.00,VWS V14.00,2013-09-16 02:06:00,
2013-09-15 22:11:00,68.0,55.8,17.72,SSE,160,0.0,0.0,65,0.00,,SKC,0.00,VWS V14.00,2013-09-16 02:11:00,
2013-09-15 22:16:00,67.8,56.1,17.72,SSE,160,0.0,0.0,66,0.00,,SKC,0.00,VWS V14.00,2013-09-16 02:16:00,
2013-09-15 22:21:00,67.8,56.1,17.72,SSE,160,0.0,0.0,66,0.00,,SKC,0.00,VWS V14.00,2013-09-16 02:21:00,
2013-09-15 22:26:00,67.6,55.9,17.72,SSE,160,0.0,0.0,66,0.00,,SKC,0.00,VWS V14.00,2013-09-16 02:26:00,
2013-09-15 22:31:00,67.5,55.7,17.72,SSE,160,0.0,0.0,66,0.00,,SKC,0.00,VWS V14.00,2013-09-16 02:31:00,
2013-09-15 22:36:00,67.3,55.5,17.72,SSE,160,0.0,0.0,66,0.00,,SKC,0.00,VWS V14.00,2013-09-16 02:36:00,
2013-09-15 22:41:00,67.3,56.0,17.72,SSE,160,0.0,0.0,67,0.00,,SKC,0.00,VWS V14.00,2013-09-16 02:41:00,
2013-09-15 22:46:00,67.1,55.8,17.72,SSE,160,0.0,0.0,67,0.00,,SKC,0.00,VWS V14.00,2013-09-16 02:46:00,
2013-09-15 22:51:00,66.9,55.6,17.72,SSE,160,0.0,0.0,67,0.00,,SKC,0.00,VWS V14.00,2013-09-16 02:51:00,
2013-09-15 22:56:00,66.9,55.6,17.72,SSE,160,0.0,0.0,67,0.00,,SKC,0.00,VWS V14.00,2013-09-16 02:56:00,
2013-09-15 23:01:00,66.7,55.5,17.72,SSE,160,0.0,0.0,67,0.00,,SKC,0.00,VWS V14.00,2013-09-16 03:01:00,
2013-09-15 23:06:00,66.6,55.3,17.72,SSE,160,0.0,0.0,67,0.00,,SKC,0.00,VWS V14.00,2013-09-16 03:06:00,
2013-09-15 23:11:00,66.4,55.5,17.72,SSE,160,0.0,0.0,68,0.00,,SKC,0.00,VWS V14.00,2013-09-16 03:11:00,
2013-09-15 23:16:00,66.4,55.5,17.72,SSE,160,0.0,0.0,68,0.00,,SKC,0.00,VWS V14.00,2013-09-16 03:16:00,
2013-09-15 23:21:00,66.2,55.3,17.72,SSE,160,0.0,0.0,68,0.00,,SKC,0.00,VWS V14.00,2013-09-16 03:21:00,
2013-09-15 23:26:00,66.0,55.6,17.72,SSE,160,0.0,0.0,69,0.00,,SKC,0.00,VWS V14.00,2013-09-16 03:26:00,
2013-09-15 23:31:00,65.8,55.4,17.72,SSE,160,0.0,0.0,69,0.00,,SKC,0.00,VWS V14.00,2013-09-16 03:31:00,
2013-09-15 23:36:00,65.8,55.4,17.72,SSE,160,0.0,0.0,69,0.00,,SKC,0.00,VWS V14.00,2013-09-16 03:36:00,
2013-09-15 23:41:00,65.8,55.4,17.72,SSE,160,0.0,0.0,69,0.00,,SKC,0.00,VWS V14.00,2013-09-16 03:41:00,
2013-09-15 23:46:00,65.7,55.2,17.72,SSE,160,0.0,0.0,69,0.00,,SKC,0.00,VWS V14.00,2013-09-16 03:46:00,
2013-09-15 23:51:00,65.5,55.5,17.72,SSE,160,0.0,0.0,70,0.00,,SKC,0.00,VWS V14.00,2013-09-16 03:51:00,
2013-09-15 23:56:00,65.5,55.5,17.72,SSE,160,0.0,0.0,70,0.00,,SKC,0.00,VWS V14.00,2013-09-16 03:56:00,